Theta_e
319 320 320 320 320 320 322 325 362 361 354 352 354 356 354 352 354 356 355 339 345 346 346 347 347 349 349 349 347 349 347 347 349 349 348 347 346 343 343 346 347 346 346 346
319 320 319 320 320 321 322 342 359 357 356 357 353 357 355 353 354 354 354 340 345 344 346 347 348 349 349 349 349 350 348 348 350 349 347 347 347 343 343 346 348 348 348 345
322 322 321 322 322 322 320 326 355 358 354 355 358 358 357 353 352 353 353 339 344 344 346 347 349 349 348 347 348 349 347 346 348 349 349 349 348 348 344 347 348 348 348 347
322 322 323 323 323 321 322 319 347 355 353 354 353 358 355 358 357 355 351 341 344 344 343 345 348 348 346 346 346 345 345 346 345 348 349 349 349 349 348 348 349 348 349 348
322 322 322 323 323 320 321 321 340 352 353 354 359 352 350 357 360 357 353 343 342 344 343 344 346 346 345 347 347 347 346 347 345 347 348 350 350 349 347 347 348 349 350 350
320 319 320 320 321 320 322 339 342 341 344 350 354 353 355 356 357 355 353 347 342 344 344 343 346 346 344 348 348 348 348 346 346 346 348 349 348 347 349 349 347 349 350 350
320 322 320 319 320 319 322 333 340 350 350 350 344 352 344 350 351 353 353 349 345 342 344 344 345 346 346 349 348 348 347 347 347 347 351 350 349 346 345 350 349 349 351 351
321 323 321 320 319 318 319 325 328 344 348 344 345 348 347 348 347 349 351 351 351 350 345 344 344 345 346 348 349 348 348 347 347 348 350 350 351 348 347 349 350 351 351 351
320 324 323 321 320 319 322 323 321 325 326 344 347 347 346 350 347 352 352 352 353 350 348 347 343 345 346 347 349 351 349 347 347 346 347 350 352 350 348 348 351 349 347 350
319 323 323 324 321 325 320 321 327 323 330 344 350 353 353 357 354 347 353 351 349 349 349 348 348 346 347 348 349 350 351 349 348 348 347 349 351 350 350 348 349 349 348 347
319 320 323 322 321 323 327 328 323 322 324 343 351 352 353 355 357 356 353 349 348 349 347 347 347 346 346 348 348 348 349 349 351 350 349 350 352 351 350 350 348 348 349 349
320 316 322 324 321 319 324 326 324 327 333 337 343 353 351 353 352 351 350 348 346 342 341 342 344 347 346 346 345 344 343 343 347 350 351 350 350 351 351 350 348 349 351 352
319 318 324 323 319 319 318 318 319 320 327 336 344 353 350 349 349 348 349 347 345 346 345 343 341 343 344 344 343 342 338 342 341 345 346 347 347 348 349 347 347 348 348 351
318 316 321 323 321 320 320 320 318 318 322 337 342 357 355 351 346 343 343 343 342 341 340 340 340 341 342 342 340 339 338 339 340 340 340 342 344 342 346 347 349 349 350 351
317 320 320 320 319 319 320 325 321 320 324 332 350 354 352 350 345 338 337 338 336 336 334 334 334 336 338 340 341 342 344 345 342 342 338 338 342 338 342 344 344 347 349 351
316 320 322 324 322 319 320 319 333 339 345 344 348 350 346 342 333 332 332 330 330 329 328 327 329 330 332 333 333 333 336 341 344 342 341 342 340 339 339 339 339 344 345 348
320 320 321 325 320 319 321 319 321 341 340 346 351 347 340 337 334 330 329 327 326 326 324 324 324 325 328 329 329 328 328 330 333 335 340 344 345 343 343 342 341 337 342 345
313 319 318 322 323 325 319 321 338 341 340 339 341 340 335 332 328 325 324 322 322 321 319 319 320 322 325 325 325 325 325 325 325 326 327 329 332 337 341 343 343 344 344 345
310 314 316 319 325 324 325 318 320 333 342 339 338 335 329 326 325 323 319 318 315 316 317 317 319 323 323 322 321 322 321 321 321 321 323 324 327 326 325 326 324 326 330 336
311 310 314 318 321 324 328 323 321 330 342 331 331 329 327 326 327 322 318 316 316 317 317 317 320 319 319 318 320 319 316 316 316 318 320 321 323 324 324 326 325 323 325 326
315 313 315 318 319 321 319 319 320 325 324 328 327 326 325 326 322 317 316 316 315 315 315 316 316 315 315 315 316 315 313 312 312 316 317 319 321 321 322 323 325 325 323 329
320 316 318 315 320 324 318 318 322 318 316 325 324 323 320 319 318 316 317 316 314 313 312 313 312 312 312 313 314 312 311 311 312 314 315 317 317 317 319 321 322 322 322 322
318 317 319 319 318 316 316 316 313 312 316 320 321 318 317 317 315 314 312 312 313 312 311 311 311 311 310 310 310 309 310 309 310 312 312 312 313 313 314 315 316 317 318 318
316 314 318 318 319 319 316 314 312 312 313 317 317 317 316 316 314 312 310 309 309 310 310 309 309 309 308 308 309 307 307 306 306 306 306 307 308 309 310 311 312 313 313 313
313 314 313 315 317 316 316 314 312 310 311 314 316 316 315 313 312 310 309 309 309 309 309 309 308 307 307 308 307 306 305 305 304 304 305 306 305 304 304 304 305 306 306 307
313 314 313 315 313 313 314 313 312 311 310 310 311 311 311 311 308 309 309 308 308 308 307 307 307 306 307 306 306 305 304 303 303 303 303 302 302 302 302 302 302 303 303 304
Wind_Speed
4 3 6 8 5 5 4 2 9 5 8 6 5 6 10 15 8 7 5 8 17 17 18 25 28 28 27 29 27 25 25 22 20 17 17 14 13 12 12 13 14 12 11 12
5 6 8 6 7 5 3 4 6 8 7 7 10 9 8 14 9 7 6 7 16 14 15 21 24 24 29 32 31 28 26 24 22 18 14 12 14 10 13 11 11 10 11 10
5 4 5 4 2 5 2 5 6 8 7 5 8 2 8 10 9 9 9 7 16 16 17 16 22 27 27 31 36 34 28 23 23 18 12 10 11 6 13 12 12 11 10 9
4 6 4 3 4 6 2 7 8 14 10 5 7 3 5 12 13 11 11 11 16 17 15 17 23 24 28 34 36 34 31 24 23 21 15 15 17 14 14 15 13 12 10 10
6 5 6 5 8 6 9 6 13 13 4 5 4 2 2 11 11 10 12 13 17 21 21 20 26 30 31 31 36 35 32 26 24 22 16 12 19 16 14 14 12 12 12 11
6 3 5 8 4 10 2 9 11 5 3 2 7 6 5 12 17 23 19 14 18 21 21 22 28 29 26 29 33 35 34 28 23 22 18 15 16 16 15 13 14 14 13 13
6 5 5 5 4 1 4 7 2 3 1 5 5 2 4 12 18 25 24 12 15 15 15 14 13 22 25 27 30 33 34 30 24 23 17 15 13 15 16 15 16 17 16 16
3 3 7 3 10 8 7 9 6 6 5 3 5 5 3 7 11 6 14 10 10 12 14 14 21 22 22 25 31 33 35 31 25 23 21 15 14 14 14 15 18 17 18 18
3 5 4 4 5 10 4 4 6 7 2 4 3 1 4 9 9 10 14 13 9 10 13 12 9 4 12 18 17 18 20 27 25 23 22 19 16 14 13 13 16 15 15 17
3 2 1 5 4 4 7 6 3 3 5 3 3 1 2 3 6 6 10 11 10 9 10 12 14 22 20 19 18 16 14 23 24 21 22 21 18 16 13 13 14 18 15 16
3 3 6 1 3 6 3 2 6 5 3 5 3 4 4 3 8 11 10 11 11 9 8 9 16 15 18 22 20 14 12 4 11 18 20 20 19 17 16 15 12 13 13 17
2 4 2 3 4 4 1 5 5 5 3 3 4 3 4 9 9 11 11 11 10 8 6 7 9 8 8 12 7 14 10 12 9 6 14 17 20 18 19 20 18 15 16 17
2 3 2 6 6 7 7 4 4 5 3 4 5 3 4 10 11 11 13 11 9 7 9 7 6 7 8 14 12 11 3 5 3 6 7 4 3 6 11 19 22 22 22 19
4 3 3 4 5 2 3 4 3 4 4 6 3 10 8 10 13 12 13 13 11 8 9 9 6 9 11 9 6 5 4 8 7 9 6 11 3 5 6 7 14 16 15 20
4 4 1 2 3 3 1 3 3 3 4 5 15 16 15 12 11 8 10 19 14 10 8 6 7 11 15 17 13 9 8 4 12 13 7 9 15 13 11 10 10 9 9 13
4 2 0 6 6 6 4 8 9 5 6 7 19 13 6 13 11 11 13 14 14 11 10 8 8 12 15 16 19 18 14 10 16 17 12 11 14 6 11 11 10 12 8 11
4 2 3 1 4 5 6 8 6 4 2 21 16 11 14 15 13 15 14 15 13 11 9 9 9 12 19 20 20 24 22 21 19 18 12 1 6 11 13 12 13 11 9 14
3 4 3 1 4 4 4 7 9 11 3 5 15 18 16 15 8 8 7 14 14 13 10 8 11 17 19 22 24 25 25 27 26 26 22 18 15 11 5 3 4 5 7 10
5 3 3 3 2 1 6 8 4 3 7 7 22 18 16 17 17 8 6 8 7 8 15 19 20 21 21 19 17 20 22 22 23 23 20 18 17 16 13 11 9 7 5 4
5 7 4 2 2 4 6 8 4 5 3 4 15 17 22 19 10 6 7 10 13 19 17 20 25 21 18 14 13 16 18 19 20 17 15 14 13 12 12 11 12 11 8 9
4 4 3 1 1 3 3 7 8 5 7 12 13 20 17 10 5 8 9 12 18 20 22 22 21 21 15 11 10 15 15 18 14 12 11 12 14 13 12 11 11 11 11 13
2 3 1 1 3 2 5 5 5 3 4 13 14 19 9 13 15 13 12 12 17 19 18 21 22 18 15 12 9 12 15 13 12 12 12 12 12 13 13 13 14 15 14 14
1 4 4 4 5 5 4 2 3 2 3 5 12 7 14 19 16 14 11 13 17 19 19 19 20 18 14 12 12 13 10 8 10 10 13 13 12 12 12 13 15 15 15 17
2 2 3 3 4 3 4 4 5 5 8 9 12 14 16 18 16 13 10 13 15 20 21 19 17 14 11 8 9 12 10 9 9 12 13 14 15 14 13 12 13 14 16 17
3 3 3 1 3 3 2 2 5 5 8 13 10 13 12 14 12 11 9 13 17 22 21 18 16 14 11 9 9 8 8 8 11 12 13 13 14 16 16 16 15 12 11 12
0 4 3 4 3 3 5 3 3 7 7 9 10 7 9 16 11 17 14 18 23 23 21 19 17 16 15 11 9 8 6 7 10 12 13 15 15 16 16 18 17 13 14 14
Wind_Direction
192 131 200 193 175 132 102 2 79 69 83 87 258 285 188 188 203 208 233 142 168 170 172 168 174 176 175 180 176 174 173 177 178 179 187 179 186 195 201 197 195 193 193 192
45 213 220 172 167 126 124 102 89 79 128 73 264 252 172 199 225 228 212 153 161 160 162 168 172 171 181 180 180 178 181 183 181 183 194 199 195 202 193 190 191 196 208 203
157 245 170 147 136 128 138 160 176 141 146 143 170 306 200 223 234 235 248 168 165 161 162 167 174 181 179 181 186 188 187 185 186 189 198 176 188 194 185 187 187 190 190 198
223 233 147 164 230 137 205 192 155 151 165 176 165 218 221 182 212 236 225 177 167 169 163 170 180 180 186 187 191 191 191 188 185 191 192 204 195 183 189 189 185 187 190 202
245 181 189 190 214 152 223 154 180 160 96 100 176 120 227 164 200 225 227 188 177 178 170 177 182 182 188 187 191 195 191 190 185 190 198 207 202 201 193 195 199 194 197 193
222 220 172 209 217 181 138 83 60 66 107 323 189 188 192 178 185 198 223 193 181 183 181 178 181 177 181 185 190 190 194 193 188 191 193 195 200 196 189 196 202 205 202 202
330 261 234 165 252 249 129 96 55 56 43 221 163 156 219 201 195 201 199 173 175 182 171 164 173 180 176 181 188 192 196 198 194 192 193 205 214 211 211 205 205 207 210 213
185 304 167 182 185 190 186 154 150 157 187 235 98 222 295 268 213 138 175 128 118 124 148 158 195 191 181 185 187 193 198 203 201 201 205 211 218 220 223 219 212 212 216 218
172 269 293 186 162 145 193 146 184 105 17 101 197 28 21 42 77 121 127 133 122 125 123 117 118 316 186 177 181 194 201 210 210 212 213 215 220 228 228 227 213 209 223 226
229 258 271 277 131 45 155 160 76 14 139 147 331 77 249 51 109 96 100 122 120 116 123 115 134 185 162 167 167 167 190 217 222 224 224 224 228 232 234 230 234 230 245 227
112 145 288 358 46 169 48 72 60 110 106 145 142 282 336 160 124 121 111 116 129 119 119 128 132 137 144 153 151 126 131 138 215 237 236 232 236 238 241 246 245 241 242 237
334 129 200 230 285 264 55 148 127 121 197 78 115 259 42 87 94 110 120 125 110 109 107 108 116 142 144 151 115 140 113 90 61 236 240 240 246 254 252 259 257 258 257 261
19 16 43 2 360 6 50 348 97 106 89 169 123 237 123 99 89 95 107 113 108 123 130 118 122 127 147 152 175 221 152 136 257 72 78 100 156 243 258 257 264 266 267 273
84 69 120 144 220 225 14 328 119 106 111 151 171 143 159 131 122 107 101 93 91 92 98 104 114 109 121 157 179 217 156 268 260 264 307 290 285 64 13 302 267 266 270 265
87 98 55 45 339 154 115 325 183 143 156 143 162 156 164 150 129 125 129 117 109 100 86 74 89 93 95 101 115 119 103 161 221 217 260 288 257 281 304 285 321 275 281 283
355 132 111 354 16 19 34 21 37 46 114 66 150 148 152 129 127 125 112 105 107 109 104 86 73 76 84 88 91 83 83 121 177 183 210 252 261 263 301 297 288 287 294 322
45 81 55 147 319 37 353 356 342 43 291 143 161 168 144 144 139 133 130 119 115 115 96 87 78 72 77 74 76 71 71 81 87 88 84 101 268 258 278 279 265 313 300 313
84 79 29 208 24 64 266 18 75 79 31 130 114 141 141 131 104 83 107 123 125 117 106 88 77 75 85 90 88 87 82 78 75 69 64 57 70 79 89 38 15 357 306 313
44 106 72 108 101 220 350 351 346 24 33 134 130 130 118 118 106 84 93 96 92 106 113 104 100 97 93 83 81 81 74 74 68 60 55 54 58 59 51 56 57 43 18 327
41 62 101 65 103 196 236 269 10 99 69 349 132 134 138 139 138 167 142 125 109 112 106 101 107 98 90 76 75 71 59 55 47 42 45 47 52 54 43 40 40 39 38 29
2 4 105 101 121 297 204 291 323 280 222 163 164 151 156 159 144 136 128 109 112 114 112 114 105 96 91 81 64 57 47 39 30 33 35 41 43 45 37 35 30 35 46 63
133 114 248 60 90 235 21 335 178 236 349 164 171 158 135 131 127 135 134 130 120 112 109 114 108 98 93 85 82 67 48 29 28 43 52 49 47 47 44 44 44 42 42 47
25 175 178 154 216 258 290 255 300 203 161 162 156 137 140 141 141 143 135 128 132 128 122 122 114 104 92 82 78 81 65 40 32 37 41 39 37 40 42 43 40 39 40 41
310 148 102 76 295 324 18 11 25 67 92 91 121 134 144 142 145 143 136 133 129 130 130 128 118 105 91 82 78 71 55 37 42 46 41 39 37 32 30 36 40 41 31 23
216 29 124 333 324 325 16 128 123 81 101 108 116 135 145 140 140 140 138 136 138 140 144 144 135 127 122 116 97 75 55 51 55 52 45 42 37 28 22 24 22 22 25 19
291 173 147 209 214 193 246 288 254 141 137 135 126 118 139 145 141 145 145 150 150 152 150 145 142 142 142 138 127 111 78 61 55 53 42 32 26 24 22 12 4 19 10 18